Location: Palmerston North
(40.3500°S, 175.6170°E)
Time: 23:29:02
(UTC+13:00)

Resurs 1-3 - Pass Details

Date: 24 January 2019
Orbit: 631 x 632 km, 98.0° (Epoch: 22 February)

Event Time Altitude Azimuth Distance (km) Brightness Sun altitude
Rises 21:49:04 0° 161° (SSE) 2,964 7.3 -11.4°
Reaches altitude 10° 21:51:23 10° 154° (SSE) 2,047 6.4 -11.8°
Maximum altitude 21:55:40 45° 81° (E) 875 3.9 -12.4°
Enters shadow 21:59:42 11° 8° (N) 1,949 5.7 -13.0°
